Mitchell, SD

5:51 AM CST on December 16, 2019 (GMT -0600)
Mitchell Municipal

Weather History for KMHE - May, 2019

Change the Weather History Date:

Thursday, May 2, 2019

  Actual Average Record
Temperature  
Mean Temperature 47 °F 55 °F  
Max Temperature 60 °F 68 °F 94 °F (1987)
Min Temperature 33 °F 43 °F 22 °F (1967)
Degree Days  
Heating Degree Days 18 10  
Month to date heating degree days 39 21  
Since 1 July heating degree days 7727 7021  
Cooling Degree Days 0 0  
Month to date cooling degree days 0 0  
Year to date cooling degree days 0 2  
Moisture  
Dew Point 36 °F    
Average Humidity 70    
Maximum Humidity 96    
Minimum Humidity 44    
Precipitation  
Precipitation T in 0.10 in 1.54 in (1899)
Month to date precipitation 0.01 0.18  
Year to date precipitation 7.59 3.98  
Snow  
Snow 0.00 in - T in (1967)
Month to date snowfall 0.0  
Since 1 July snowfall 67.6  
Snow Depth 0.00 in    
Sea Level Pressure  
Sea Level Pressure 30.15 in    
Wind  
Wind Speed 7 mph (SSW)    
Max Wind Speed 17 mph    
Max Gust Speed 22 mph    
Visibility 10 miles    
Events      
T = Trace of Precipitation, MM = Missing Value Source: NWS Daily Summary

Daily Weather History Graph

Daily Weather History Graph

Search for Another Location

Airport or City:

Astronomy

May. 02, 2019 Rise Set
Actual Time 6:23 AM CDT 8:35 PM CDT
Civil Twilight 5:51 AM CDT 9:07 PM CDT
Nautical Twilight 5:12 AM CDT 9:46 PM CDT
Astronomical Twilight 4:29 AM CDT 10:30 PM CDT
Moon 5:44 AM CDT (5/2) 6:17 PM CDT (5/2)
Length of Visible Light 15h 16m
Length of Day
14h 12m
Waning Crescent, 5% of the Moon is Illuminated
May 2
Waning Crescent
May 4
New
May 11
First Quarter
May 18
Full
May 26
Last Quarter

Hourly Weather History & Observations

Time (CDT) Temp. Windchill Dew Point Humidity Pressure Visibility Wind Dir Wind Speed Gust Speed Precip Events Conditions
12:53 AM 41.0 °F 36.4 °F 37.9 °F 89% 30.19 in 10.0 mi West 6.9 mph - N/A   Mostly Cloudy
1:53 AM 39.0 °F 32.8 °F 36.0 °F 89% 30.19 in 10.0 mi West 9.2 mph - N/A   Partly Cloudy
2:53 AM 37.9 °F 32.7 °F 35.1 °F 89% 30.18 in 10.0 mi WNW 6.9 mph - N/A   Clear
3:53 AM 35.1 °F 30.1 °F 33.1 °F 92% 30.20 in 10.0 mi WSW 5.8 mph - N/A   Clear
4:53 AM 35.1 °F 28.6 °F 33.1 °F 92% 30.20 in 10.0 mi West 8.1 mph - N/A   Clear
5:53 AM 34.0 °F 28.0 °F 32.0 °F 92% 30.20 in 10.0 mi West 6.9 mph - N/A   Clear
6:53 AM 33.1 °F 27.7 °F 30.9 °F 92% 30.22 in 10.0 mi West 5.8 mph - N/A   Clear
7:53 AM 37.9 °F 34.4 °F 34.0 °F 86% 30.23 in 10.0 mi WNW 4.6 mph - N/A   Clear
8:53 AM 41.0 °F - 36.0 °F 82% 30.23 in 10.0 mi Calm Calm - N/A   Clear
9:53 AM 44.1 °F - 37.0 °F 76% 30.23 in 10.0 mi Calm Calm - N/A   Partly Cloudy
10:53 AM 46.9 °F - 37.0 °F 68% 30.22 in 10.0 mi Variable 3.5 mph - N/A   Partly Cloudy
11:53 AM 48.9 °F - 37.0 °F 64% 30.22 in 10.0 mi SW 4.6 mph - N/A   Scattered Clouds
12:53 PM 52.0 °F - 37.9 °F 59% 30.20 in 10.0 mi North - - N/A   Partly Cloudy
1:53 PM 55.0 °F - 37.0 °F 51% 30.17 in 10.0 mi Calm Calm - N/A   Clear
2:53 PM 55.9 °F - 37.0 °F 49% 30.14 in 10.0 mi SSE 5.8 mph - N/A   Partly Cloudy
3:53 PM 57.9 °F - 37.0 °F 46% 30.11 in 10.0 mi South 8.1 mph - N/A   Scattered Clouds
4:53 PM 59.0 °F - 37.9 °F 46% 30.08 in 10.0 mi ESE 11.5 mph 18.4 mph N/A   Clear
5:53 PM 57.9 °F - 37.9 °F 47% 30.07 in 10.0 mi SE 10.4 mph - N/A   Clear
6:53 PM 57.0 °F - 37.0 °F 47% 30.05 in 10.0 mi SE 15.0 mph - N/A   Clear
7:53 PM 55.0 °F - 37.0 °F 51% 30.05 in 10.0 mi SE 13.8 mph - N/A   Clear
8:53 PM 52.0 °F - 39.0 °F 61% 30.07 in 10.0 mi SE 8.1 mph - N/A   Mostly Cloudy
9:53 PM 52.0 °F - 39.0 °F 61% 30.09 in 10.0 mi SE 9.2 mph - N/A   Overcast
10:53 PM 50.0 °F - 39.0 °F 66% 30.07 in 10.0 mi SSE 13.8 mph - N/A   Scattered Clouds
11:53 PM 51.1 °F - 37.9 °F 61% 30.08 in 10.0 mi SE 6.9 mph - N/A   Overcast